KC5TIL-3 Weather Reports


Display with metric or nautical units.
time (UTC)temp
F
wind
direction
speed
MPH
gust
MPH
rain 1hr
in
rain 24hr
in
rain mn
in
humidity
%
barometer
mb
20260505124820 72 187 9.0 18.0 0.00 0.00 0.00 68 1001.8
20260505124318 72 227 10.0 20.0 0.00 0.00 0.00 68 1001.8
20260505123816 72 208 13.0 20.0 0.00 0.00 0.00 68 1001.8
20260505123318 72 147 10.0 20.0 0.00 0.00 0.00 68 1001.8
20260505122820 72 178 12.0 19.0 0.00 0.00 0.00 68 1001.8
20260505122319 72 204 10.0 20.0 0.00 0.00 0.00 68 1001.8
20260505120821 72 230 10.0 15.0 0.00 0.00 0.00 69 1001.8
20260505120323 72 158 11.0 16.0 0.00 0.00 0.00 69 1001.8
20260505115825 72 219 9.0 19.0 0.00 0.00 0.00 69 1001.8
20260505115323 72 192 14.0 18.0 0.00 0.00 0.00 70 1001.8
20260505114327 72 184 13.0 18.0 0.00 0.00 0.00 70 1001.8
20260505113826 72 205 10.0 16.0 0.00 0.00 0.00 71 1001.8
20260505113428 72 216 10.0 15.0 0.00 0.00 0.00 71 1001.8
20260505113328 72 216 10.0 15.0 0.00 0.00 0.00 71 1001.8
20260505112829 72 218 12.0 15.0 0.00 0.00 0.00 72 1001.8
20260505112328 72 172 9.0 17.0 0.00 0.00 0.00 72 1001.8
20260505111327 72 201 12.0 14.0 0.00 0.00 0.00 73 1001.8
20260505110827 72 235 11.0 17.0 0.00 0.00 0.00 74 1001.8
20260505110328 72 222 11.0 18.0 0.00 0.00 0.00 74 1001.8
20260505101831 72 202 9.0 16.0 0.00 0.00 0.00 74 1001.8
20260505101333 72 169 12.0 19.0 0.00 0.00 0.00 74 1001.8
20260505100832 72 214 12.0 18.0 0.00 0.00 0.00 74 1001.8
20260505100328 71 183 10.0 16.0 0.00 0.00 0.00 74 1001.8
20260505095831 71 207 12.0 19.0 0.00 0.00 0.00 74 1001.8
20260505095325 72 195 14.0 16.0 0.00 0.00 0.00 73 1001.8
20260505094826 71 233 10.0 19.0 0.00 0.00 0.00 73 1001.8
20260505094328 72 194 12.0 19.0 0.00 0.00 0.00 73 1001.8
20260505093828 71 192 12.0 15.0 0.00 0.00 0.00 73 1001.8
20260505093324 72 205 12.0 16.0 0.00 0.00 0.00 73 1001.8
20260505092827 72 203 13.0 17.0 0.00 0.00 0.00 72 1001.8
20260505092325 72 239 10.0 18.0 0.00 0.00 0.00 72 1001.8
20260505091827 71 216 12.0 17.0 0.00 0.00 0.00 72 1001.8
20260505091329 72 188 13.0 15.0 0.00 0.00 0.00 72 1001.8
20260505090828 72 210 10.0 17.0 0.00 0.00 0.00 71 1001.8
20260505090329 72 193 15.0 17.0 0.00 0.00 0.00 71 1001.8
20260505085832 72 203 12.0 17.0 0.00 0.00 0.00 70 1001.8
20260505085330 72 197 11.0 21.0 0.00 0.00 0.00 70 1001.8
20260505084832 72 217 11.0 20.0 0.00 0.00 0.00 69 1001.8
20260505084334 72 210 14.0 18.0 0.00 0.00 0.00 69 1001.8
20260505083828 72 172 12.0 18.0 0.00 0.00 0.00 68 1001.8
20260505083329 72 208 11.0 15.0 0.00 0.00 0.00 68 1001.8
20260505082831 72 197 10.0 17.0 0.00 0.00 0.00 67 1001.8
20260505082330 72 202 10.0 15.0 0.00 0.00 0.00 66 1001.8
20260505081831 72 136 12.0 20.0 0.00 0.00 0.00 66 1001.8
20260505081333 72 153 13.0 18.0 0.00 0.00 0.00 65 1001.8
20260505080329 72 231 12.0 15.0 0.00 0.00 0.00 63 1001.8
20260505075831 72 190 10.0 20.0 0.00 0.00 0.00 63 1001.8
20260505075329 72 144 10.0 18.0 0.00 0.00 0.00 62 1001.8
20260505074334 72 202 10.0 18.0 0.00 0.00 0.00 60 1002.8
20260505073832 72 213 11.0 16.0 0.00 0.00 0.00 59 1002.8
20260505073334 72 229 9.0 16.0 0.00 0.00 0.00 58 1002.8
20260505072836 72 159 10.0 21.0 0.00 0.00 0.00 57 1002.8
20260505072334 72 148 10.0 17.0 0.00 0.00 0.00 55 1002.8
20260505071837 72 193 10.0 13.0 0.00 0.00 0.00 54 1002.8
20260505071339 72 216 10.0 18.0 0.00 0.00 0.00 53 1002.8
20260505070836 72 208 10.0 14.0 0.00 0.00 0.00 52 1002.8
20260505070334 72 138 10.0 15.0 0.00 0.00 0.00 51 1002.8
20260505065836 72 210 9.0 16.0 0.00 0.00 0.00 51 1002.8
20260505065334 72 195 7.0 16.0 0.00 0.00 0.00 50 1002.8
20260505064836 73 192 10.0 21.0 0.00 0.00 0.00 49 1003.8
20260505063837 73 199 11.0 15.0 0.00 0.00 0.00 48 1003.8
20260505062339 73 217 8.0 20.0 0.00 0.00 0.00 46 1003.8
20260505061840 73 215 7.0 16.0 0.00 0.00 0.00 46 1003.8
20260505060836 73 182 8.0 18.0 0.00 0.00 0.00 44 1003.8
20260505055840 74 191 9.0 15.0 0.00 0.00 0.00 43 1003.8
20260505055338 74 215 11.0 16.0 0.00 0.00 0.00 43 1003.8
20260505054841 74 202 9.0 15.0 0.00 0.00 0.00 42 1003.8
20260505053841 74 223 10.0 15.0 0.00 0.00 0.00 42 1003.8
20260505052343 74 202 9.0 15.0 0.00 0.00 0.00 40 1002.8
20260505051347 75 164 8.0 17.0 0.00 0.00 0.00 39 1003.8
20260505050845 75 207 9.0 15.0 0.00 0.00 0.00 39 1003.8
20260505041356 76 139 9.0 14.0 0.00 0.00 0.00 37 1003.8
20260505040855 76 191 7.0 15.0 0.00 0.00 0.00 37 1003.8
20260505040357 76 193 9.0 15.0 0.00 0.00 0.00 37 1003.8
20260505035859 76 210 9.0 14.0 0.00 0.00 0.00 36 1003.8
20260505035357 76 172 8.0 18.0 0.00 0.00 0.00 36 1003.8
20260505033859 76 227 8.0 15.0 0.00 0.00 0.00 36 1003.8
20260505033401 76 191 9.0 16.0 0.00 0.00 0.00 36 1003.8
20260505032903 76 184 7.0 14.0 0.00 0.00 0.00 36 1003.8
20260505032402 76 185 8.0 12.0 0.00 0.00 0.00 37 1003.8
20260505031905 76 143 8.0 15.0 0.00 0.00 0.00 36 1003.8
20260505031405 76 140 6.0 14.0 0.00 0.00 0.00 36 1003.8
20260505030904 76 220 7.0 15.0 0.00 0.00 0.00 36 1003.8
20260505030407 76 194 7.0 13.0 0.00 0.00 0.00 36 1003.8
20260505025908 76 236 6.0 12.0 0.00 0.00 0.00 36 1003.8
20260505025407 76 188 7.0 12.0 0.00 0.00 0.00 35 1003.8
20260505024909 76 216 7.0 14.0 0.00 0.00 0.00 35 1003.8
20260505023411 76 223 5.0 15.0 0.00 0.00 0.00 35 1003.8
20260505022912 76 235 8.0 13.0 0.00 0.00 0.00 35 1003.8
20260505022411 76 227 7.0 14.0 0.00 0.00 0.00 35 1003.8
20260505021913 76 150 7.0 12.0 0.00 0.00 0.00 35 1003.8
20260505021415 76 132 10.0 13.0 0.00 0.00 0.00 35 1003.8
20260505020909 76 231 8.0 16.0 0.00 0.00 0.00 34 1003.8
20260505020406 76 129 7.0 13.0 0.00 0.00 0.00 34 1003.8
20260505015903 76 148 8.0 11.0 0.00 0.00 0.00 34 1003.8
20260505015403 76 197 7.0 14.0 0.00 0.00 0.00 34 1003.8
20260505014904 76 215 7.0 11.0 0.00 0.00 0.00 34 1002.8
20260505014406 76 147 7.0 11.0 0.00 0.00 0.00 34 1002.8
20260505013905 76 167 7.0 10.0 0.00 0.00 0.00 34 1002.8
20260505013406 76 143 8.0 12.0 0.00 0.00 0.00 34 1003.8
20260505012903 77 137 5.0 15.0 0.00 0.00 0.00 33 1003.8
20260505012403 77 129 8.0 12.0 0.00 0.00 0.00 33 1003.8
20260505011904 77 233 5.0 12.0 0.00 0.00 0.00 33 1003.8
20260505011405 77 147 7.0 13.0 0.00 0.00 0.00 33 1003.8
20260505010904 77 177 9.0 14.0 0.00 0.00 0.00 32 1003.8
20260505010402 77 224 9.0 12.0 0.00 0.00 0.00 32 1003.8
20260505005903 77 208 6.0 13.0 0.00 0.00 0.00 32 1003.8
20260505005402 77 117 8.0 12.0 0.00 0.00 0.00 32 1003.8
20260505004904 78 187 6.0 12.0 0.00 0.00 0.00 31 1003.8
20260505004406 78 143 7.0 12.0 0.00 0.00 0.00 31 1003.8
20260505003900 78 227 7.0 15.0 0.00 0.00 0.00 31 1003.8
20260505003401 78 165 8.0 13.0 0.00 0.00 0.00 30 1003.8
20260505002903 78 250 8.0 15.0 0.00 0.00 0.00 30 1003.8
20260505002403 78 200 9.0 15.0 0.00 0.00 0.00 30 1003.8
20260505001904 78 187 10.0 12.0 0.00 0.00 0.00 30 1003.8
20260505001405 78 201 11.0 16.0 0.00 0.00 0.00 30 1003.8
20260505000905 79 195 8.0 14.0 0.00 0.00 0.00 30 1003.8
20260504235907 79 198 8.0 15.0 0.00 0.00 0.00 30 1003.8
20260504235400 79 150 7.0 13.0 0.00 0.00 0.00 29 1003.8
20260504234901 79 149 9.0 13.0 0.00 0.00 0.00 28 1003.8
20260504234403 79 138 11.0 13.0 0.00 0.00 0.00 28 1003.8
20260504233901 79 236 9.0 14.0 0.00 0.00 0.00 28 1003.8
20260504233403 80 211 10.0 12.0 0.00 0.00 0.00 26 1003.8
20260504232905 80 220 7.0 15.0 0.00 0.00 0.00 26 1003.8
20260504231906 80 158 9.0 15.0 0.00 0.00 0.00 27 1003.8
20260504231408 80 184 8.0 14.0 0.00 0.00 0.00 26 1003.8
20260504230907 79 128 11.0 16.0 0.00 0.00 0.00 25 1003.8
20260504224910 80 208 10.0 14.0 0.00 0.00 0.00 23 1004.8
20260504223408 80 212 13.0 16.0 0.00 0.00 0.00 23 1004.8
20260504222911 80 161 9.0 15.0 0.00 0.00 0.00 23 1004.8
20260504222410 80 137 8.0 20.0 0.00 0.00 0.00 23 1004.8
20260504221911 80 231 11.0 18.0 0.00 0.00 0.00 23 1004.8
20260504220911 80 186 9.0 16.0 0.00 0.00 0.00 23 1004.8
20260504220413 80 193 11.0 19.0 0.00 0.00 0.00 23 1004.8
20260504215915 80 221 11.0 19.0 0.00 0.00 0.00 23 1004.8
20260504215413 81 191 8.0 13.0 0.00 0.00 0.00 22 1004.8
20260504214915 80 224 10.0 18.0 0.00 0.00 0.00 23 1004.8
20260504214413 81 198 10.0 17.0 0.00 0.00 0.00 22 1004.8
20260504213911 81 235 9.0 15.0 0.00 0.00 0.00 22 1004.8
20260504213413 81 123 8.0 18.0 0.00 0.00 0.00 22 1004.8
20260504212915 81 206 10.0 20.0 0.00 0.00 0.00 22 1004.8
20260504212408 81 172 11.0 18.0 0.00 0.00 0.00 21 1004.8
20260504211910 81 141 11.0 15.0 0.00 0.00 0.00 21 1004.8
20260504211413 82 184 10.0 15.0 0.00 0.00 0.00 21 1004.8
20260504210911 83 203 7.0 16.0 0.00 0.00 0.00 21 1004.8
20260504210413 81 215 9.0 18.0 0.00 0.00 0.00 22 1005.8
20260504205409 81 199 9.0 17.0 0.00 0.00 0.00 22 1005.8
20260504204910 81 193 11.0 18.0 0.00 0.00 0.00 21 1005.8
20260504204413 81 180 8.0 18.0 0.00 0.00 0.00 21 1005.8
20260504203906 81 206 9.0 18.0 0.00 0.00 0.00 21 1005.8
20260504203408 81 232 9.0 20.0 0.00 0.00 0.00 21 1005.8
20260504202409 82 195 9.0 18.0 0.00 0.00 0.00 22 1005.8
20260504201906 81 208 10.0 17.0 0.00 0.00 0.00 22 1006.8
20260504200906 81 189 9.0 12.0 0.00 0.00 0.00 21 1006.8
20260504200408 81 102 11.0 16.0 0.00 0.00 0.00 23 1006.8
20260504195910 79 122 11.0 17.0 0.00 0.00 0.00 23 1006.8
20260504195408 80 240 11.0 15.0 0.00 0.00 0.00 22 1006.8
20260504194910 80 176 6.0 17.0 0.00 0.00 0.00 23 1006.8
20260504194412 80 228 11.0 15.0 0.00 0.00 0.00 23 1006.8
20260504193910 80 191 11.0 15.0 0.00 0.00 0.00 23 1006.8
20260504193412 79 208 9.0 14.0 0.00 0.00 0.00 23 1006.8
20260504192914 79 147 7.0 15.0 0.00 0.00 0.00 23 1006.8
20260504191913 79 199 9.0 18.0 0.00 0.00 0.00 24 1007.8
20260504191416 78 210 13.0 18.0 0.00 0.00 0.00 24 1007.8
20260504190914 79 195 10.0 15.0 0.00 0.00 0.00 23 1007.8
20260504190415 78 247 10.0 14.0 0.00 0.00 0.00 23 1007.8
20260504185918 78 195 10.0 14.0 0.00 0.00 0.00 24 1007.8
20260504185415 79 185 7.0 15.0 0.00 0.00 0.00 23 1007.8
20260504184419 77 210 12.0 16.0 0.00 0.00 0.00 25 1007.8
20260504183917 77 202 12.0 17.0 0.00 0.00 0.00 25 1007.8
20260504182410 77 189 12.0 19.0 0.00 0.00 0.00 25 1007.8
20260504181903 77 210 11.0 17.0 0.00 0.00 0.00 24 1008.8
20260504180858 77 188 10.0 14.0 0.00 0.00 0.00 25 1008.8
20260504175902 77 132 9.0 14.0 0.00 0.00 0.00 25 1008.8
20260504173400 75 139 7.0 18.0 0.00 0.00 0.00 27 1008.8
20260504172902 75 207 11.0 15.0 0.00 0.00 0.00 27 1008.8
20260504172355 75 179 7.0 15.0 0.00 0.00 0.00 26 1008.8
20260504171858 75 199 9.0 15.0 0.00 0.00 0.00 26 1008.8
20260504171359 75 224 9.0 16.0 0.00 0.00 0.00 27 1008.8
20260504160405 71 205 14.0 21.0 0.00 0.00 0.00 32 1009.8
20260504150405 69 200 9.0 18.0 0.00 0.00 0.00 34 1010.8
20260504140413 67 222 10.0 19.0 0.00 0.00 0.00 41 1010.8
20260504130419 65 229 10.0 20.0 0.00 0.00 0.00 44 1010.8